Ludington, MI

8:07 AM EST on December 15, 2019 (GMT -0500)
Mason County

Weather History for KLDM - August, 2019

Change the Weather History Date:

Wednesday, August 28, 2019

  Actual Average Record
Temperature  
Mean Temperature 62 °F -  
Max Temperature 67 °F 77 °F 92 °F (1991)
Min Temperature 56 °F 57 °F 37 °F (1968)
Degree Days  
Heating Degree Days 3    
Growing Degree Days 12 (Base 50)    
Moisture  
Dew Point 52 °F    
Average Humidity 64    
Maximum Humidity 89    
Minimum Humidity 54    
Precipitation  
Precipitation 0.00 in - - ()
Sea Level Pressure  
Sea Level Pressure 29.83 in    
Wind  
Wind Speed 8 mph (West)    
Max Wind Speed 16 mph    
Max Gust Speed 25 mph    
Visibility 10 miles    
Events Rain    
Averages and records for this station are not official NWS values.
T = Trace of Precipitation, MM = Missing Value Source: NWS Daily Summary

Daily Weather History Graph

Daily Weather History Graph

Search for Another Location

Airport or City:

Astronomy

Aug. 28, 2019 Rise Set
Actual Time 7:04 AM EDT 8:28 PM EDT
Civil Twilight 6:34 AM EDT 8:58 PM EDT
Nautical Twilight 5:57 AM EDT 9:34 PM EDT
Astronomical Twilight 5:19 AM EDT 10:13 PM EDT
Moon 4:29 AM EDT (8/28) 7:45 PM EDT (8/28)
Length of Visible Light 14h 24m
Length of Day
13h 24m
Waning Crescent, 5% of the Moon is Illuminated
Aug 28
Waning Crescent
Aug 30
New
Sep 5
First Quarter
Sep 14
Full
Sep 21
Last Quarter

Hourly Weather History & Observations

Time (EDT) Temp. Dew Point Humidity Pressure Visibility Wind Dir Wind Speed Gust Speed Precip Events Conditions
12:15 AM 60.1 °F 50.2 °F 70% 29.81 in 10.0 mi SW 3.5 mph - N/A   Clear
12:35 AM 59.9 °F 51.4 °F 74% 29.80 in 10.0 mi Calm Calm - N/A   Scattered Clouds
12:59 AM 57.0 °F 51.8 °F 83% 29.80 in 10.0 mi Calm Calm - N/A   Clear
1:17 AM 57.9 °F 52.0 °F 81% 29.80 in 10.0 mi Calm Calm - N/A   Clear
1:35 AM 62.8 °F 54.7 °F 75% 29.80 in 10.0 mi West 5.8 mph - N/A   Clear
1:36 AM 63.1 °F 54.7 °F 74% 29.80 in 10.0 mi WSW 6.9 mph - N/A   Clear
1:55 AM 65.3 °F 53.2 °F 65% 29.79 in 10.0 mi West 6.9 mph - N/A   Clear
1:56 AM 65.3 °F 53.2 °F 65% 29.79 in 10.0 mi West 8.1 mph - N/A   Clear
2:15 AM 66.0 °F 50.4 °F 57% 29.79 in 10.0 mi West 9.2 mph - N/A   Clear
2:38 AM 66.4 °F 49.5 °F 54% 29.78 in 10.0 mi West 11.5 mph 19.6 mph N/A   Clear
2:56 AM 66.2 °F 50.5 °F 57% 29.78 in 10.0 mi West 10.4 mph 16.1 mph N/A   Clear
3:15 AM 66.4 °F 50.2 °F 56% 29.78 in 10.0 mi WSW 13.8 mph 18.4 mph N/A   Clear
3:16 AM 66.4 °F 50.2 °F 56% 29.78 in 10.0 mi WSW 12.7 mph 18.4 mph N/A   Clear
3:35 AM 66.4 °F 50.5 °F 57% 29.77 in 10.0 mi West 10.4 mph 18.4 mph N/A   Clear
3:36 AM 66.4 °F 50.7 °F 57% 29.77 in 10.0 mi West 9.2 mph 18.4 mph N/A   Clear
3:59 AM 66.0 °F 50.7 °F 58% 29.77 in 10.0 mi West 9.2 mph - N/A   Clear
4:16 AM 66.0 °F 52.2 °F 61% 29.77 in 10.0 mi West 11.5 mph 23.0 mph N/A   Clear
4:35 AM 65.8 °F 51.8 °F 60% 29.76 in 10.0 mi WSW 12.7 mph 17.3 mph N/A   Clear
4:36 AM 65.8 °F 51.8 °F 60% 29.77 in 10.0 mi WSW 12.7 mph 17.3 mph N/A   Clear
4:55 AM 65.5 °F 52.5 °F 63% 29.77 in 10.0 mi West 9.2 mph 18.4 mph N/A   Clear
4:56 AM 65.5 °F 52.7 °F 63% 29.77 in 10.0 mi WSW 11.5 mph 18.4 mph N/A   Clear
5:15 AM 64.6 °F 52.3 °F 64% 29.77 in 10.0 mi West 12.7 mph 20.7 mph N/A   Clear
5:20 AM 64.6 °F 52.2 °F 64% 29.77 in 10.0 mi West 11.5 mph 20.7 mph N/A   Clear
5:37 AM 63.7 °F 52.0 °F 66% 29.77 in 10.0 mi West 8.1 mph 18.4 mph N/A   Clear
5:56 AM 63.7 °F 51.8 °F 65% 29.77 in 10.0 mi West 10.4 mph 19.6 mph N/A   Clear
6:15 AM 63.5 °F 52.2 °F 67% 29.77 in 10.0 mi West 11.5 mph 19.6 mph N/A   Clear
6:35 AM 63.1 °F 52.7 °F 69% 29.77 in 10.0 mi WSW 12.7 mph 18.4 mph N/A   Clear
6:59 AM 62.8 °F 53.8 °F 72% 29.77 in 10.0 mi West 11.5 mph 17.3 mph N/A   Clear
7:17 AM 63.0 °F 53.8 °F 72% 29.78 in 10.0 mi WSW 15.0 mph - N/A   Clear
7:35 AM 63.1 °F 53.8 °F 71% 29.78 in 10.0 mi WSW 12.7 mph 20.7 mph N/A   Clear
7:55 AM 63.5 °F 54.5 °F 72% 29.78 in 10.0 mi West 13.8 mph 19.6 mph N/A   Clear
8:15 AM 63.5 °F 53.1 °F 69% 29.79 in 10.0 mi West 12.7 mph 20.7 mph N/A   Clear
8:19 AM 63.7 °F 52.9 °F 68% 29.79 in 10.0 mi West 15.0 mph 21.9 mph N/A   Scattered Clouds
8:38 AM 63.1 °F 52.9 °F 69% 29.79 in 10.0 mi West 9.2 mph 19.6 mph N/A   Scattered Clouds
8:56 AM 63.3 °F 53.2 °F 70% 29.80 in 10.0 mi West 15.0 mph 21.9 mph N/A   Mostly Cloudy
9:15 AM 63.7 °F 52.9 °F 68% 29.80 in 10.0 mi West 11.5 mph 24.2 mph N/A   Scattered Clouds
9:35 AM 63.5 °F 52.5 °F 67% 29.80 in 10.0 mi West 12.7 mph 24.2 mph N/A   Scattered Clouds
9:59 AM 64.6 °F 52.0 °F 64% 29.80 in 10.0 mi West 10.4 mph 21.9 mph N/A   Scattered Clouds
10:17 AM 64.9 °F 52.3 °F 64% 29.80 in 10.0 mi West 16.1 mph 24.2 mph N/A   Mostly Cloudy
10:35 AM 63.5 °F 51.4 °F 65% 29.81 in 10.0 mi West 13.8 mph 21.9 mph N/A   Overcast
10:55 AM 63.7 °F 52.2 °F 66% 29.82 in 10.0 mi West 10.4 mph 20.7 mph N/A   Overcast
11:15 AM 65.1 °F 51.8 °F 62% 29.82 in 10.0 mi West 12.7 mph 23.0 mph N/A   Overcast
11:20 AM 64.8 °F 52.0 °F 63% 29.82 in 10.0 mi West 10.4 mph 23.0 mph N/A   Overcast
11:38 AM 66.2 °F 52.7 °F 62% 29.82 in 10.0 mi West 15.0 mph 21.9 mph N/A   Overcast
11:56 AM 66.4 °F 52.2 °F 60% 29.82 in 10.0 mi West 11.5 mph 25.3 mph N/A   Scattered Clouds
12:15 PM 65.8 °F 52.9 °F 63% 29.82 in 10.0 mi West 11.5 mph 20.7 mph N/A   Mostly Cloudy
12:35 PM 63.9 °F 52.9 °F 67% 29.83 in 10.0 mi West 11.5 mph 19.6 mph N/A   Overcast
12:59 PM 61.0 °F 54.3 °F 79% 29.84 in 7.0 mi West 6.9 mph 19.6 mph N/A Rain Rain
1:17 PM 64.2 °F 53.6 °F 68% 29.83 in 10.0 mi West 10.4 mph - N/A   Overcast
1:35 PM 65.5 °F 52.0 °F 62% 29.84 in 10.0 mi West 11.5 mph 17.3 mph N/A   Overcast
1:55 PM 67.1 °F 51.8 °F 58% 29.84 in 10.0 mi West 12.7 mph 21.9 mph N/A   Overcast
2:15 PM 67.5 °F 52.0 °F 58% 29.84 in 10.0 mi WNW 13.8 mph 21.9 mph N/A   Overcast
2:20 PM 66.4 °F 50.9 °F 57% 29.84 in 10.0 mi West 12.7 mph 21.9 mph N/A   Overcast
2:38 PM 65.7 °F 50.7 °F 58% 29.85 in 10.0 mi West 9.2 mph 23.0 mph N/A   Overcast
2:56 PM 65.3 °F 50.5 °F 59% 29.85 in 10.0 mi West 11.5 mph 19.6 mph N/A   Overcast
3:15 PM 65.1 °F 50.9 °F 60% 29.85 in 10.0 mi West 10.4 mph 19.6 mph N/A   Overcast
3:16 PM 65.1 °F 50.9 °F 60% 29.85 in 10.0 mi West 11.5 mph 19.6 mph N/A   Overcast
3:35 PM 65.5 °F 49.8 °F 57% 29.85 in 10.0 mi West 11.5 mph 18.4 mph N/A   Overcast
3:36 PM 65.5 °F 49.6 °F 57% 29.85 in 10.0 mi West 8.1 mph 18.4 mph N/A   Overcast
3:59 PM 66.6 °F 51.8 °F 59% 29.85 in 10.0 mi West 8.1 mph - N/A   Overcast
4:17 PM 65.3 °F 50.4 °F 58% 29.86 in 10.0 mi West 9.2 mph 17.3 mph N/A   Overcast
4:35 PM 65.5 °F 50.0 °F 57% 29.86 in 10.0 mi West 11.5 mph 17.3 mph N/A   Overcast
4:55 PM 66.4 °F 50.4 °F 56% 29.86 in 10.0 mi West 9.2 mph 18.4 mph N/A   Overcast
4:56 PM 66.4 °F 50.5 °F 57% 29.86 in 10.0 mi West 9.2 mph 18.4 mph N/A   Overcast
5:15 PM 66.6 °F 51.3 °F 58% 29.86 in 10.0 mi West 8.1 mph - N/A   Overcast
5:20 PM 66.2 °F 51.1 °F 58% 29.86 in 10.0 mi West 9.2 mph - N/A   Overcast
5:38 PM 65.8 °F 50.4 °F 57% 29.87 in 10.0 mi West 10.4 mph 18.4 mph N/A   Overcast
5:56 PM 65.5 °F 50.4 °F 58% 29.87 in 10.0 mi WNW 8.1 mph - N/A   Overcast
6:15 PM 65.7 °F 50.7 °F 58% 29.87 in 10.0 mi West 5.8 mph - N/A   Overcast
6:16 PM 65.8 °F 50.7 °F 58% 29.87 in 10.0 mi West 5.8 mph - N/A   Overcast
6:35 PM 65.8 °F 52.0 °F 61% 29.87 in 10.0 mi West 8.1 mph - N/A   Overcast
6:40 PM 66.0 °F 52.0 °F 60% 29.87 in 10.0 mi West 8.1 mph - N/A   Overcast
6:58 PM 66.2 °F 52.0 °F 60% 29.87 in 10.0 mi West 9.2 mph - N/A   Overcast
7:16 PM 65.8 °F 49.6 °F 56% 29.88 in 10.0 mi West 8.1 mph - N/A   Overcast
7:35 PM 65.7 °F 49.8 °F 57% 29.88 in 10.0 mi West 6.9 mph - N/A   Overcast
7:36 PM 65.7 °F 50.0 °F 57% 29.88 in 10.0 mi West 6.9 mph - N/A   Overcast
7:55 PM 65.7 °F 50.7 °F 58% 29.88 in 10.0 mi West 8.1 mph - N/A   Overcast
7:56 PM 65.7 °F 50.9 °F 59% 29.88 in 10.0 mi West 8.1 mph - N/A   Overcast
8:19 PM 64.6 °F 50.4 °F 60% 29.88 in 10.0 mi WNW 4.6 mph - N/A   Overcast
8:37 PM 64.0 °F 51.3 °F 63% 29.88 in 10.0 mi West 3.5 mph - N/A   Mostly Cloudy
8:55 PM 64.8 °F 51.8 °F 63% 29.89 in 10.0 mi WNW 5.8 mph - N/A   Overcast
8:56 PM 64.8 °F 51.6 °F 62% 29.89 in 10.0 mi WNW 6.9 mph - N/A   Overcast
9:15 PM 64.9 °F 51.1 °F 61% 29.89 in 10.0 mi WNW 5.8 mph - N/A   Overcast
9:16 PM 64.9 °F 51.1 °F 61% 29.89 in 10.0 mi WNW 5.8 mph - N/A   Overcast
9:35 PM 65.3 °F 51.8 °F 62% 29.90 in 10.0 mi WNW 3.5 mph - N/A   Overcast
9:40 PM 65.3 °F 51.8 °F 62% 29.90 in 10.0 mi Calm Calm - N/A   Overcast
9:58 PM 65.1 °F 52.3 °F 63% 29.90 in 10.0 mi Calm Calm - N/A   Overcast
10:16 PM 65.3 °F 52.3 °F 63% 29.90 in 10.0 mi Calm Calm - N/A   Overcast
10:35 PM 64.2 °F 52.0 °F 64% 29.91 in 10.0 mi WNW 3.5 mph - N/A   Overcast
10:36 PM 64.2 °F 51.8 °F 64% 29.91 in 10.0 mi WNW 3.5 mph - N/A   Overcast
10:55 PM 64.0 °F 52.0 °F 65% 29.91 in 10.0 mi Calm Calm - N/A   Overcast
10:56 PM 64.0 °F 52.0 °F 65% 29.91 in 10.0 mi Calm Calm - N/A   Overcast
11:19 PM 62.8 °F 52.7 °F 70% 29.91 in 10.0 mi Calm Calm - N/A   Scattered Clouds
11:37 PM 58.1 °F 53.8 °F 86% 29.91 in 10.0 mi Calm Calm - N/A   Clear
11:55 PM 56.8 °F 53.8 °F 89% 29.91 in 10.0 mi Calm Calm - N/A   Clear